Flag for USA

Past Weather in Laughlin, Nevada, USA — Yesterday and Last 2 Weeks

Now
106 °F

Sunny.


Feels Like: 98 °F
Forecast: 111 / 78 °F
Wind: 7 mph from Southwest

Location: Laughlin/Bullhead International Airport

Current Time: Jul 8, 2020 at 7:58:11 pm

Latest Report: Jul 8, 2020 at 7:35 pm


Visibility: 10 mi

Pressure: 29.64 "Hg

Humidity: 3%

Dew Point: 9 °F

Location of LaughlinLocation

Past Weather in Laughlin — Graph

°F

Laughlin Temperature Yesterday

Maximum temperature yesterday: 111 °F (at 2:50 pm)
Minimum temperature yesterday: 77 °F (at 5:55 am)
Average temperature yesterday: 95 °F

High & Low Weather Summary for the Past Weeks

 TemperatureHumidityPressure
High111 °F (Jul 5, 3:50 pm)63% (Jun 28, 3:35 am)29.93 "Hg (Jun 28, 3:35 am)
Low73 °F (Jun 30, 4:55 am)2% (Jul 6, 5:55 pm)29.39 "Hg (Jun 28, 5:55 pm)
Average93 °F16%29.71 "Hg
* Reported Jun 23 6:35 pm — Jul 8 6:15 pm, Laughlin. Weather by CustomWeather, © 2020

Note: Actual official high and low records may vary slightly from our data, if they occured in-between our weather recording intervals... More about our weather records

Laughlin Weather History for the Previous 24 Hours

Scroll right to see more
 ConditionsComfort  
Time TempWeatherWind HumidityBarometerVisibility
6:15 pm
Wed, Jul 8
108 °FSunny.16 mph3%29.64 "Hg10 mi
5:55 pm108 °FSunny.17 mph3%29.63 "Hg10 mi
4:52 pm109 °FSunny.16 mphN/A29.64 "Hg20 mi
3:50 pm109 °FSunny.14 mphN/A29.65 "Hg20 mi
2:52 pm108 °FSunny.7 mph4%29.68 "Hg10 mi
1:50 pm106 °FSunny.7 mph5%29.71 "Hg10 mi
12:52 pm106 °FSunny.7 mph6%29.74 "Hg10 mi
11:50 am102 °FSunny.12 mph6%29.76 "Hg10 mi
10:50 am100 °FSunny.9 mph8%29.77 "Hg10 mi
9:49 am97 °FSunny.10 mph9%29.77 "Hg10 mi
8:50 am91 °FSunny.7 mph12%29.78 "Hg10 mi
7:48 am88 °FSunny.No wind13%29.76 "Hg10 mi
7:35 am86 °FSunny.No wind14%29.76 "Hg10 mi
7:15 am84 °FSunny.No wind14%29.75 "Hg10 mi
6:55 am84 °FSunny.No wind14%29.75 "Hg10 mi
6:35 am82 °FSunny.No wind15%29.74 "Hg10 mi
5:55 am81 °FSunny.No wind15%29.73 "Hg10 mi
5:30 am82 °FClear.No wind15%29.72 "Hg10 mi
5:15 am82 °FClear.3 mph14%29.72 "Hg10 mi
4:55 am84 °FClear.No wind13%29.71 "Hg10 mi
4:35 am84 °FClear.No wind13%29.71 "Hg10 mi
4:10 am86 °FClear.7 mph11%29.70 "Hg10 mi
3:55 am86 °FClear.8 mph11%29.70 "Hg10 mi
3:35 am84 °FClear.5 mph12%29.69 "Hg10 mi
2:55 am90 °FClear.6 mph10%29.69 "Hg10 mi
2:30 am88 °FClear.9 mph11%29.69 "Hg10 mi
2:10 am90 °FClear.5 mph9%29.69 "Hg10 mi
1:50 am91 °FClear.13 mph9%29.68 "Hg10 mi
1:35 am91 °FClear.10 mph9%29.68 "Hg10 mi
1:15 am90 °FClear.8 mph9%29.68 "Hg10 mi
12:55 am90 °FClear.5 mph9%29.68 "Hg10 mi
12:30 am93 °FClear.No wind8%29.68 "Hg10 mi
12:15 am91 °FClear.No wind10%29.68 "Hg10 mi
11:50 pm
Tue, Jul 7
95 °FClear.8 mph7%29.68 "Hg10 mi
11:35 pm97 °FClear.9 mph7%29.67 "Hg10 mi
11:15 pm97 °FClear.13 mph7%29.67 "Hg10 mi
10:55 pm99 °FClear.13 mph7%29.66 "Hg10 mi
10:35 pm99 °FClear.13 mph7%29.66 "Hg10 mi
10:15 pm99 °FClear.12 mph7%29.66 "Hg10 mi
9:55 pm100 °FClear.14 mph6%29.66 "Hg10 mi
9:35 pm102 °FClear.13 mph6%29.65 "Hg10 mi
9:15 pm102 °FClear.13 mph6%29.65 "Hg10 mi
8:50 pm104 °FClear.13 mph6%29.64 "Hg10 mi
8:35 pm104 °FClear.15 mph6%29.63 "Hg10 mi
8:10 pm106 °FClear.15 mph5%29.62 "Hg10 mi
7:55 pm106 °FClear.16 mph5%29.62 "Hg10 mi
7:35 pm108 °FSunny.16 mph5%29.62 "Hg10 mi
Weather by CustomWeather, © 2020

See weather overview